LVMSA SADF-SAAR

Flight info

Callsign LVMSA
Flight time 1h 4m
Altitude 6000
Route DCT ATOVO W5 DCT
Aircraft BE36/L-S/C

Departure

Time 2026-05-08 19:42
Airport San Fernando Airport (SADF)

Arrival

Time 2026-05-08 20:46
Airport Rosario Islas Malvinas International Airport (SAAR)
Time Latitude Longitude Altitude Speed Heading
2026-05-08 19:33 -34.44924 -58.58173 8 ft 0 kts 150°
2026-05-08 19:37 -34.44943 -58.58175 8 ft 6 kts 222°
2026-05-08 19:38 -34.44960 -58.58226 8 ft 6 kts 292°
2026-05-08 19:38 -34.44913 -58.58268 8 ft 10 kts 327°
2026-05-08 19:38 -34.44901 -58.58276 8 ft 0 kts 330°
2026-05-08 19:40 -34.44888 -58.58286 8 ft 8 kts 323°
2026-05-08 19:40 -34.44851 -58.58362 8 ft 13 kts 264°
2026-05-08 19:41 -34.44997 -58.58553 8 ft 58 kts 223°
2026-05-08 19:41 -34.45356 -58.58963 37 ft 77 kts 230°
2026-05-08 19:41 -34.45779 -58.59448 215 ft 87 kts 227°
2026-05-08 19:41 -34.46239 -58.59956 384 ft 90 kts 230°
2026-05-08 19:42 -34.46699 -58.60479 556 ft 91 kts 230°
2026-05-08 19:42 -34.47152 -58.60991 745 ft 90 kts 224°
2026-05-08 19:42 -34.47637 -58.61499 917 ft 91 kts 228°
2026-05-08 19:42 -34.47945 -58.62112 1103 ft 86 kts 261°
2026-05-08 19:43 -34.47798 -58.62809 1294 ft 91 kts 295°
2026-05-08 19:43 -34.47298 -58.63334 1443 ft 99 kts 309°
2026-05-08 19:43 -34.46574 -58.63641 1509 ft 124 kts 348°
2026-05-08 19:43 -34.45711 -58.63518 1693 ft 126 kts 354°
2026-05-08 19:44 -34.44850 -58.63378 1846 ft 126 kts 354°
2026-05-08 19:44 -34.43964 -58.63233 2003 ft 129 kts 354°
2026-05-08 19:44 -34.43072 -58.63086 2158 ft 131 kts 354°
2026-05-08 19:44 -34.42204 -58.63106 2336 ft 116 kts 325°
2026-05-08 19:45 -34.41648 -58.63683 2530 ft 102 kts 297°
2026-05-08 19:45 -34.41185 -58.64347 2707 ft 102 kts 298°
2026-05-08 19:45 -34.40724 -58.65007 2888 ft 102 kts 297°
2026-05-08 19:45 -34.40268 -58.65664 3068 ft 102 kts 297°
2026-05-08 19:46 -34.39817 -58.66316 3242 ft 101 kts 297°
2026-05-08 19:46 -34.39363 -58.66973 3421 ft 100 kts 297°
2026-05-08 19:46 -34.38473 -58.68265 3774 ft 99 kts 297°
2026-05-08 19:47 -34.38035 -58.68904 3948 ft 98 kts 297°
2026-05-08 19:47 -34.37649 -58.69561 4126 ft 91 kts 281°
2026-05-08 19:47 -34.37374 -58.70256 4302 ft 92 kts 288°
2026-05-08 19:47 -34.37042 -58.70911 4474 ft 91 kts 290°
2026-05-08 19:48 -34.36680 -58.71544 4649 ft 90 kts 292°
2026-05-08 19:48 -34.36312 -58.72136 4818 ft 88 kts 293°
2026-05-08 19:48 -34.35938 -58.72714 4991 ft 86 kts 294°
2026-05-08 19:48 -34.35559 -58.73285 5103 ft 90 kts 294°
2026-05-08 19:49 -34.35145 -58.73902 5198 ft 99 kts 296°
2026-05-08 19:49 -34.34687 -58.74569 5357 ft 104 kts 297°
2026-05-08 19:49 -34.34213 -58.75251 5517 ft 107 kts 297°
2026-05-08 19:49 -34.33730 -58.75941 5673 ft 110 kts 298°
2026-05-08 19:50 -34.33200 -58.76703 5664 ft 122 kts 299°
2026-05-08 19:50 -34.32634 -58.77508 5657 ft 128 kts 300°
2026-05-08 19:50 -34.32046 -58.78342 5654 ft 133 kts 300°
2026-05-08 19:50 -34.31440 -58.79204 5654 ft 136 kts 301°
2026-05-08 19:51 -34.30822 -58.80080 5655 ft 138 kts 300°
2026-05-08 19:51 -34.30195 -58.80970 5655 ft 140 kts 301°
2026-05-08 19:51 -34.29565 -58.81863 5656 ft 141 kts 301°
2026-05-08 19:51 -34.28925 -58.82774 5660 ft 142 kts 301°
2026-05-08 19:52 -34.28280 -58.83691 5662 ft 143 kts 301°
2026-05-08 19:52 -34.27627 -58.84616 5655 ft 144 kts 301°
2026-05-08 19:52 -34.26987 -58.85525 5653 ft 144 kts 301°
2026-05-08 19:52 -34.26331 -58.86457 5662 ft 144 kts 301°
2026-05-08 19:53 -34.25682 -58.87378 5661 ft 144 kts 301°
2026-05-08 19:53 -34.25032 -58.88300 5662 ft 144 kts 301°
2026-05-08 19:53 -34.24379 -58.89227 5664 ft 145 kts 301°
2026-05-08 19:53 -34.23722 -58.90158 5666 ft 145 kts 301°
2026-05-08 19:54 -34.23064 -58.91091 5669 ft 146 kts 301°
2026-05-08 19:54 -34.22410 -58.92017 5670 ft 146 kts 301°
2026-05-08 19:54 -34.21750 -58.92956 5667 ft 146 kts 301°
2026-05-08 19:54 -34.21087 -58.93895 5666 ft 146 kts 301°
2026-05-08 19:55 -34.20423 -58.94835 5663 ft 146 kts 301°
2026-05-08 19:55 -34.19768 -58.95762 5668 ft 145 kts 301°
2026-05-08 19:55 -34.19108 -58.96696 5677 ft 145 kts 301°
2026-05-08 19:55 -34.18464 -58.97610 5681 ft 144 kts 301°
2026-05-08 19:56 -34.17803 -58.98544 5686 ft 144 kts 301°
2026-05-08 19:56 -34.17154 -58.99461 5684 ft 144 kts 301°
2026-05-08 19:56 -34.16507 -59.00379 5682 ft 144 kts 301°
2026-05-08 19:56 -34.15850 -59.01306 5677 ft 145 kts 301°
2026-05-08 19:57 -34.15197 -59.02231 5671 ft 145 kts 301°
2026-05-08 19:57 -34.14537 -59.03162 5671 ft 145 kts 301°
2026-05-08 19:57 -34.13887 -59.04079 5672 ft 145 kts 301°
2026-05-08 19:57 -34.13230 -59.05007 5673 ft 144 kts 301°
2026-05-08 19:58 -34.12572 -59.05933 5674 ft 144 kts 301°
2026-05-08 19:58 -34.11926 -59.06844 5674 ft 144 kts 301°
2026-05-08 19:58 -34.11269 -59.07771 5678 ft 143 kts 301°
2026-05-08 19:58 -34.10622 -59.08686 5677 ft 144 kts 301°
2026-05-08 19:59 -34.09972 -59.09602 5677 ft 144 kts 301°
2026-05-08 19:59 -34.09325 -59.10514 5677 ft 144 kts 301°
2026-05-08 19:59 -34.08673 -59.11435 5677 ft 144 kts 301°
2026-05-08 19:59 -34.08021 -59.12354 5678 ft 144 kts 301°
2026-05-08 20:00 -34.07363 -59.13282 5677 ft 144 kts 301°
2026-05-08 20:00 -34.06712 -59.14197 5675 ft 144 kts 301°
2026-05-08 20:00 -34.06060 -59.15122 5677 ft 144 kts 300°
2026-05-08 20:00 -34.05418 -59.16047 5678 ft 144 kts 300°
2026-05-08 20:01 -34.04781 -59.16965 5680 ft 144 kts 300°
2026-05-08 20:01 -34.04138 -59.17896 5680 ft 144 kts 300°
2026-05-08 20:01 -34.03492 -59.18826 5681 ft 144 kts 300°
2026-05-08 20:01 -34.02846 -59.19759 5680 ft 145 kts 300°
2026-05-08 20:02 -34.02204 -59.20687 5679 ft 145 kts 300°
2026-05-08 20:02 -34.01550 -59.21630 5679 ft 146 kts 300°
2026-05-08 20:02 -34.00903 -59.22565 5679 ft 146 kts 301°
2026-05-08 20:02 -34.00239 -59.23519 5678 ft 146 kts 300°
2026-05-08 20:03 -33.99595 -59.24449 5679 ft 146 kts 301°
2026-05-08 20:03 -33.98941 -59.25388 5683 ft 146 kts 300°
2026-05-08 20:03 -33.98285 -59.26335 5684 ft 146 kts 300°
2026-05-08 20:03 -33.97637 -59.27268 5686 ft 146 kts 300°
2026-05-08 20:04 -33.96982 -59.28210 5688 ft 146 kts 300°
2026-05-08 20:04 -33.96323 -59.29156 5687 ft 146 kts 300°
2026-05-08 20:04 -33.95669 -59.30096 5686 ft 146 kts 300°
2026-05-08 20:04 -33.95015 -59.31037 5684 ft 146 kts 300°
2026-05-08 20:05 -33.94364 -59.31975 5683 ft 146 kts 300°
2026-05-08 20:05 -33.93706 -59.32920 5683 ft 146 kts 300°
2026-05-08 20:05 -33.93056 -59.33857 5684 ft 146 kts 300°
2026-05-08 20:05 -33.92402 -59.34797 5684 ft 146 kts 300°
2026-05-08 20:06 -33.91745 -59.35740 5686 ft 146 kts 300°
2026-05-08 20:06 -33.91098 -59.36671 5687 ft 146 kts 300°
2026-05-08 20:06 -33.90440 -59.37615 5690 ft 146 kts 300°
2026-05-08 20:06 -33.89780 -59.38562 5691 ft 146 kts 300°
2026-05-08 20:07 -33.89131 -59.39493 5693 ft 146 kts 300°
2026-05-08 20:07 -33.88480 -59.40425 5694 ft 146 kts 300°
2026-05-08 20:07 -33.87829 -59.41362 5696 ft 145 kts 300°
2026-05-08 20:07 -33.87178 -59.42296 5697 ft 145 kts 300°
2026-05-08 20:08 -33.86523 -59.43236 5696 ft 145 kts 300°
2026-05-08 20:08 -33.85873 -59.44164 5697 ft 145 kts 300°
2026-05-08 20:08 -33.85227 -59.45087 5698 ft 145 kts 300°
2026-05-08 20:08 -33.84573 -59.46025 5699 ft 145 kts 300°
2026-05-08 20:09 -33.83927 -59.46949 5701 ft 145 kts 300°
2026-05-08 20:09 -33.83277 -59.47883 5698 ft 145 kts 300°
2026-05-08 20:09 -33.82632 -59.48805 5697 ft 145 kts 300°
2026-05-08 20:09 -33.81986 -59.49732 5695 ft 145 kts 300°
2026-05-08 20:10 -33.81329 -59.50673 5692 ft 145 kts 300°
2026-05-08 20:10 -33.80676 -59.51604 5690 ft 145 kts 300°
2026-05-08 20:10 -33.80030 -59.52531 5689 ft 145 kts 300°
2026-05-08 20:10 -33.79382 -59.53456 5688 ft 145 kts 300°
2026-05-08 20:11 -33.78724 -59.54396 5686 ft 145 kts 300°
2026-05-08 20:11 -33.78072 -59.55329 5688 ft 145 kts 300°
2026-05-08 20:11 -33.77419 -59.56260 5690 ft 145 kts 300°
2026-05-08 20:11 -33.76777 -59.57178 5691 ft 145 kts 300°
2026-05-08 20:12 -33.76118 -59.58118 5690 ft 145 kts 300°
2026-05-08 20:12 -33.75471 -59.59042 5691 ft 145 kts 300°
2026-05-08 20:12 -33.74816 -59.59974 5692 ft 145 kts 300°
2026-05-08 20:12 -33.74166 -59.60902 5694 ft 145 kts 300°
2026-05-08 20:13 -33.73519 -59.61824 5693 ft 145 kts 300°
2026-05-08 20:13 -33.72868 -59.62755 5692 ft 145 kts 300°
2026-05-08 20:13 -33.72211 -59.63689 5692 ft 145 kts 300°
2026-05-08 20:13 -33.71557 -59.64621 5695 ft 145 kts 299°
2026-05-08 20:14 -33.70910 -59.65540 5702 ft 145 kts 300°
2026-05-08 20:14 -33.70258 -59.66473 5706 ft 145 kts 300°
2026-05-08 20:14 -33.69608 -59.67398 5708 ft 146 kts 300°
2026-05-08 20:14 -33.68955 -59.68324 5709 ft 146 kts 300°
2026-05-08 20:15 -33.68294 -59.69266 5712 ft 146 kts 300°
2026-05-08 20:15 -33.67643 -59.70190 5712 ft 146 kts 300°
2026-05-08 20:15 -33.66980 -59.71131 5714 ft 146 kts 300°
2026-05-08 20:15 -33.66320 -59.72069 5714 ft 147 kts 300°
2026-05-08 20:16 -33.65662 -59.73001 5717 ft 147 kts 300°
2026-05-08 20:16 -33.65001 -59.73938 5720 ft 147 kts 300°
2026-05-08 20:16 -33.64334 -59.74885 5718 ft 147 kts 300°
2026-05-08 20:16 -33.63674 -59.75822 5714 ft 148 kts 300°
2026-05-08 20:17 -33.63009 -59.76762 5715 ft 148 kts 300°
2026-05-08 20:17 -33.62340 -59.77711 5714 ft 148 kts 300°
2026-05-08 20:17 -33.61678 -59.78648 5717 ft 148 kts 300°
2026-05-08 20:17 -33.61016 -59.79585 5720 ft 147 kts 300°
2026-05-08 20:18 -33.60349 -59.80530 5722 ft 147 kts 300°
2026-05-08 20:18 -33.59694 -59.81457 5722 ft 147 kts 300°
2026-05-08 20:18 -33.59022 -59.82408 5719 ft 147 kts 300°
2026-05-08 20:18 -33.58361 -59.83345 5716 ft 149 kts 300°
2026-05-08 20:19 -33.57687 -59.84301 5710 ft 150 kts 300°
2026-05-08 20:19 -33.57017 -59.85246 5707 ft 150 kts 300°
2026-05-08 20:19 -33.56341 -59.86203 5706 ft 149 kts 300°
2026-05-08 20:19 -33.55669 -59.87154 5704 ft 149 kts 300°
2026-05-08 20:20 -33.54997 -59.88103 5706 ft 149 kts 300°
2026-05-08 20:20 -33.54327 -59.89049 5706 ft 149 kts 300°
2026-05-08 20:20 -33.53653 -59.89999 5704 ft 149 kts 300°
2026-05-08 20:20 -33.52980 -59.90951 5705 ft 149 kts 300°
2026-05-08 20:21 -33.52312 -59.91892 5704 ft 149 kts 300°
2026-05-08 20:21 -33.51637 -59.92846 5707 ft 149 kts 300°
2026-05-08 20:21 -33.50963 -59.93796 5711 ft 149 kts 300°
2026-05-08 20:21 -33.50297 -59.94736 5713 ft 149 kts 300°
2026-05-08 20:22 -33.49628 -59.95680 5715 ft 149 kts 300°
2026-05-08 20:22 -33.48950 -59.96634 5717 ft 149 kts 300°
2026-05-08 20:22 -33.48282 -59.97574 5719 ft 149 kts 299°
2026-05-08 20:22 -33.47610 -59.98521 5719 ft 149 kts 299°
2026-05-08 20:23 -33.46943 -59.99462 5720 ft 148 kts 299°
2026-05-08 20:23 -33.46267 -60.00413 5721 ft 148 kts 299°
2026-05-08 20:23 -33.45605 -60.01347 5722 ft 148 kts 300°
2026-05-08 20:23 -33.44930 -60.02295 5726 ft 148 kts 299°
2026-05-08 20:24 -33.44262 -60.03236 5724 ft 148 kts 299°
2026-05-08 20:24 -33.43595 -60.04174 5723 ft 148 kts 299°
2026-05-08 20:24 -33.42931 -60.05110 5724 ft 148 kts 299°
2026-05-08 20:24 -33.42262 -60.06049 5725 ft 148 kts 299°
2026-05-08 20:25 -33.41587 -60.06998 5726 ft 148 kts 299°
2026-05-08 20:25 -33.40919 -60.07937 5727 ft 148 kts 299°
2026-05-08 20:25 -33.40253 -60.08874 5730 ft 148 kts 299°
2026-05-08 20:25 -33.39583 -60.09817 5729 ft 149 kts 299°
2026-05-08 20:26 -33.38914 -60.10756 5728 ft 149 kts 299°
2026-05-08 20:26 -33.38240 -60.11702 5727 ft 149 kts 299°
2026-05-08 20:26 -33.37566 -60.12647 5726 ft 149 kts 299°
2026-05-08 20:26 -33.36895 -60.13589 5727 ft 149 kts 299°
2026-05-08 20:27 -33.36221 -60.14533 5730 ft 148 kts 299°
2026-05-08 20:27 -33.35545 -60.15482 5733 ft 148 kts 299°
2026-05-08 20:27 -33.34878 -60.16416 5735 ft 148 kts 299°
2026-05-08 20:27 -33.34215 -60.17346 5734 ft 148 kts 299°
2026-05-08 20:28 -33.33543 -60.18288 5737 ft 148 kts 299°
2026-05-08 20:28 -33.32861 -60.19248 5590 ft 156 kts 299°
2026-05-08 20:28 -33.32138 -60.20266 5413 ft 162 kts 300°
2026-05-08 20:28 -33.31395 -60.21305 5236 ft 165 kts 300°
2026-05-08 20:29 -33.30649 -60.22347 5058 ft 167 kts 300°
2026-05-08 20:29 -33.29887 -60.23410 4882 ft 168 kts 300°
2026-05-08 20:29 -33.29118 -60.24488 4702 ft 169 kts 301°
2026-05-08 20:29 -33.28356 -60.25552 4526 ft 169 kts 301°
2026-05-08 20:30 -33.27591 -60.26621 4346 ft 169 kts 301°
2026-05-08 20:30 -33.26831 -60.27683 4169 ft 169 kts 301°
2026-05-08 20:30 -33.26071 -60.28745 3992 ft 169 kts 301°
2026-05-08 20:30 -33.25305 -60.29815 3813 ft 169 kts 301°
2026-05-08 20:31 -33.24538 -60.30887 3635 ft 169 kts 302°
2026-05-08 20:31 -33.23777 -60.31947 3459 ft 169 kts 302°
2026-05-08 20:31 -33.23002 -60.33028 3278 ft 169 kts 302°
2026-05-08 20:31 -33.22240 -60.34095 3100 ft 169 kts 302°
2026-05-08 20:32 -33.21476 -60.35168 2919 ft 169 kts 302°
2026-05-08 20:32 -33.20721 -60.36223 2847 ft 163 kts 302°
2026-05-08 20:32 -33.19996 -60.37236 2837 ft 158 kts 302°
2026-05-08 20:32 -33.19293 -60.38218 2901 ft 150 kts 301°
2026-05-08 20:33 -33.18626 -60.39149 2928 ft 147 kts 301°
2026-05-08 20:33 -33.17962 -60.40077 2934 ft 146 kts 301°
2026-05-08 20:33 -33.17297 -60.41009 2930 ft 146 kts 301°
2026-05-08 20:33 -33.16639 -60.41929 2930 ft 146 kts 300°
2026-05-08 20:34 -33.15984 -60.42844 2931 ft 146 kts 301°
2026-05-08 20:34 -33.15318 -60.43774 2930 ft 146 kts 301°
2026-05-08 20:34 -33.14004 -60.45609 2933 ft 145 kts 300°
2026-05-08 20:35 -33.13344 -60.46527 2933 ft 145 kts 301°
2026-05-08 20:35 -33.12690 -60.47441 2935 ft 145 kts 301°
2026-05-08 20:35 -33.12029 -60.48362 2936 ft 145 kts 301°
2026-05-08 20:35 -33.11379 -60.49268 2939 ft 145 kts 301°
2026-05-08 20:36 -33.10721 -60.50183 2943 ft 145 kts 300°
2026-05-08 20:36 -33.10066 -60.51095 2948 ft 145 kts 300°
2026-05-08 20:36 -33.09408 -60.52014 2948 ft 145 kts 301°
2026-05-08 20:36 -33.08752 -60.52926 2949 ft 144 kts 300°
2026-05-08 20:37 -33.08095 -60.53841 2945 ft 145 kts 301°
2026-05-08 20:37 -33.07418 -60.54788 2771 ft 154 kts 301°
2026-05-08 20:37 -33.06704 -60.55782 2596 ft 161 kts 302°
2026-05-08 20:37 -33.05963 -60.56812 2421 ft 165 kts 302°
2026-05-08 20:38 -33.05211 -60.57856 2241 ft 168 kts 302°
2026-05-08 20:38 -33.04448 -60.58915 2061 ft 170 kts 302°
2026-05-08 20:38 -33.03675 -60.59988 1881 ft 171 kts 303°
2026-05-08 20:38 -33.02898 -60.61067 1699 ft 170 kts 303°
2026-05-08 20:39 -33.02129 -60.62135 1512 ft 168 kts 303°
2026-05-08 20:39 -33.01375 -60.63182 1329 ft 166 kts 304°
2026-05-08 20:39 -33.00639 -60.64202 1350 ft 155 kts 302°
2026-05-08 20:39 -32.99966 -60.65131 1439 ft 145 kts 304°
2026-05-08 20:40 -32.99323 -60.66028 1464 ft 139 kts 301°
2026-05-08 20:40 -32.98716 -60.66918 1516 ft 136 kts 300°
2026-05-08 20:40 -32.98122 -60.67759 1592 ft 133 kts 301°
2026-05-08 20:40 -32.97516 -60.68611 1642 ft 132 kts 302°
2026-05-08 20:41 -32.96910 -60.69445 1639 ft 134 kts 301°
2026-05-08 20:41 -32.96305 -60.70297 1601 ft 138 kts 301°
2026-05-08 20:41 -32.95686 -60.71178 1594 ft 136 kts 296°
2026-05-08 20:41 -32.95297 -60.72171 1606 ft 131 kts 284°
2026-05-08 20:42 -32.94956 -60.73169 1653 ft 129 kts 285°
2026-05-08 20:42 -32.94610 -60.74148 1702 ft 127 kts 285°
2026-05-08 20:42 -32.94279 -60.75126 1701 ft 128 kts 284°
2026-05-08 20:42 -32.93949 -60.76114 1686 ft 131 kts 284°
2026-05-08 20:43 -32.93623 -60.77163 1597 ft 136 kts 283°
2026-05-08 20:43 -32.93304 -60.78221 1587 ft 136 kts 283°
2026-05-08 20:43 -32.92959 -60.79259 1644 ft 134 kts 292°
2026-05-08 20:43 -32.92245 -60.79974 1686 ft 134 kts 326°
2026-05-08 20:44 -32.91340 -60.80212 1448 ft 128 kts 340°
2026-05-08 20:44 -32.90524 -60.80335 1426 ft 104 kts 342°
2026-05-08 20:44 -32.89856 -60.80333 1374 ft 93 kts 351°
2026-05-08 20:44 -32.89183 -60.80264 1215 ft 96 kts 353°
2026-05-08 20:45 -32.88526 -60.80143 1087 ft 98 kts 11°
2026-05-08 20:45 -32.88007 -60.79608 939 ft 100 kts 53°
2026-05-08 20:45 -32.87797 -60.78837 759 ft 99 kts 90°
2026-05-08 20:45 -32.88028 -60.78117 574 ft 89 kts 150°
2026-05-08 20:46 -32.88582 -60.78022 307 ft 80 kts 202°
2026-05-08 20:46 -32.89099 -60.78180 104 ft 72 kts 197°
2026-05-08 20:46 -32.89500 -60.78274 82 ft 48 kts 192°
2026-05-08 20:46 -32.89809 -60.78346 85 ft 41 kts 189°
2026-05-08 20:47 -32.90083 -60.78404 87 ft 38 kts 191°
2026-05-08 20:47 -32.90335 -60.78463 89 ft 36 kts 192°
2026-05-08 20:47 -32.90589 -60.78521 89 ft 37 kts 191°
2026-05-08 20:47 -32.90820 -60.78569 90 ft 28 kts 185°
2026-05-08 20:48 -32.90993 -60.78526 89 ft 23 kts 159°
2026-05-08 20:48 -32.91135 -60.78429 87 ft 24 kts 144°
2026-05-08 20:48 -32.91266 -60.78306 85 ft 24 kts 141°
2026-05-08 20:48 -32.91399 -60.78180 82 ft 23 kts 140°
2026-05-08 20:49 -32.91536 -60.78212 83 ft 19 kts 201°
2026-05-08 20:49 -32.91653 -60.78266 82 ft 17 kts 201°
2026-05-08 20:49 -32.91739 -60.78260 82 ft 11 kts 130°
2026-05-08 20:49 -32.91811 -60.78259 82 ft 11 kts 190°
2026-05-08 20:50 -32.91814 -60.78226 82 ft 0 kts 16°
2026-05-08 20:50 -32.91813 -60.78226 82 ft 1 kts 15°
2026-05-08 20:50 -32.91810 -60.78225 82 ft 0 kts 15°